Tracking 19250 objects as of 23-Sep-2018
HD Live streaming from Space Station
objects crossing your sky now

FENGYUN 1C DEB

Track FENGYUN 1C DEB now!
10-day predictions


NORAD ID: 37925
Int'l Code: 1999-025EPA
Perigee: 671.4 km
Apogee: 809.7 km
Inclination: 99.1 °
Period: 99.5 minutes
Semi major axis: 7111 km
RCS: 0.0001 m2 (small)
Launch date: May 10, 1999
Source: People's Republic of China (PRC)
Launch site: Taiyaun Space Center, China (TSC)

Note: This is SATELLITE DEBRIS
aabbcc
Your satellite tracking list
Your tracking list is empty




NASA's NSSDC Master Catalog

Two Line Element Set (TLE):
1 37925U 99025EPA 18261.12778327  .00000600  00000-0  16753-3 0  9997
2 37925  99.0990 218.8665 0097213  28.4673 332.1779 14.47629645436252
Source of the keplerian elements: AFSPC